Temp
64 64 64 64 64 65 65 65 64 63 63 63 64 64 64 64 64 63 58 66 67 69 67 63 63 62 63 57 58 61 49 45 53 55 56 62 59 61 64 62 59 60 60 64 65
64 64 64 64 64 64 64 64 64 63 63 63 63 64 64 64 62 60 68 71 70 69 63 60 57 60 56 53 53 52 49 51 62 63 59 62 61 63 60 59 55 56 60 67 63
63 63 63 64 64 63 64 64 63 63 63 63 63 63 63 62 54 56 70 70 70 69 65 61 60 58 54 54 52 49 47 56 59 62 59 59 60 61 59 55 57 57 57 62 63
63 63 63 63 63 63 63 63 63 62 62 62 63 63 64 57 41 60 67 70 69 68 63 59 56 53 52 51 53 50 56 58 59 60 56 56 60 61 60 64 67 62 61 62 62
62 62 62 62 62 63 63 63 63 62 62 62 62 63 59 51 51 64 67 67 68 67 60 57 54 52 50 52 51 50 56 58 59 59 56 59 57 59 59 65 62 61 60 61 62
61 61 61 61 61 62 62 62 62 62 62 62 62 62 52 43 64 64 66 63 67 66 61 60 57 57 52 52 50 54 57 58 57 58 57 55 57 59 63 62 58 59 58 59 61
61 61 60 60 61 61 61 62 62 61 62 63 62 58 51 49 62 62 62 60 63 66 61 62 59 57 54 48 53 53 49 52 53 57 56 57 54 56 64 61 58 58 58 59 60
61 60 60 60 60 61 61 61 61 61 61 62 62 57 47 60 59 60 60 58 62 63 63 64 63 56 53 54 49 48 48 42 53 57 56 53 46 56 61 59 57 57 57 58 59
60 60 60 60 60 60 60 61 60 61 62 61 55 52 45 60 54 58 60 55 56 57 58 62 60 53 52 47 44 45 43 41 49 58 54 50 47 58 63 59 59 57 57 58 59
60 59 59 60 60 60 60 60 60 59 57 58 56 47 49 47 53 57 57 56 53 53 52 53 52 48 48 45 39 41 42 42 45 52 53 46 46 55 59 61 61 59 57 58 58
59 59 59 60 60 60 58 52 47 44 50 43 45 45 49 52 56 54 57 54 54 51 45 48 44 42 45 48 51 51 45 45 49 54 49 47 49 55 59 61 58 60 58 58 59
59 59 59 60 60 60 55 47 50 49 42 48 48 49 51 54 48 50 56 48 47 43 47 43 41 48 51 50 48 46 44 44 49 52 50 48 47 55 59 60 57 61 61 61 62
57 59 59 59 59 56 50 49 57 54 39 43 47 46 47 50 45 45 52 50 46 42 44 41 45 50 49 46 43 45 44 45 46 46 49 45 43 48 54 57 60 62 63 64 64
55 57 59 59 53 52 48 55 55 52 23 35 39 45 47 49 41 51 53 51 43 40 44 43 48 46 44 43 46 40 50 50 46 42 38 46 37 49 54 53 57 60 59 62 65
55 52 58 58 52 47 52 54 52 45 6 38 39 53 49 44 43 46 51 47 41 41 42 39 42 41 42 45 48 43 51 46 46 43 42 41 38 46 53 50 54 58 61 62 65
54 50 57 55 55 54 57 54 46 20 8 30 40 38 40 42 42 46 47 49 49 43 42 40 43 43 45 47 46 47 45 43 42 42 35 43 39 44 48 50 56 60 62 64 65
54 54 54 55 48 57 56 49 26 11 31 32 34 40 38 38 38 41 40 39 38 32 32 33 36 40 42 43 42 44 41 32 31 30 33 42 39 44 52 55 58 60 63 64 67
54 53 50 55 57 56 51 34 14 19 25 37 37 39 34 38 38 41 37 35 42 41 36 32 29 35 41 44 42 41 42 33 26 27 29 36 35 42 54 59 60 58 63 66 65
54 49 47 51 56 55 40 25 24 27 35 36 37 32 31 36 36 35 33 36 42 43 36 33 34 40 41 43 46 39 37 44 33 26 28 33 38 46 51 51 54 57 57 59 62
45 43 41 52 55 47 34 29 29 35 39 39 28 35 29 34 33 35 35 41 39 44 48 39 31 37 39 42 40 39 44 34 34 27 27 31 32 40 45 52 54 51 53 53 55
43 34 44 52 51 38 28 30 34 40 42 34 29 27 30 33 37 34 36 42 44 42 44 42 35 31 36 33 34 35 35 38 38 34 29 25 34 43 51 55 55 56 55 55 54
37 31 46 50 34 33 31 34 41 38 38 35 34 33 33 36 35 33 34 38 47 44 37 44 37 28 32 38 42 45 39 39 35 31 31 30 36 47 47 48 50 52 52 51 51
33 34 46 46 29 30 36 36 38 36 36 32 32 35 35 37 32 39 39 43 43 44 42 43 34 28 29 33 37 33 38 41 41 36 34 30 38 47 45 46 49 51 51 50 49
33 30 37 39 40 35 32 34 31 38 34 34 33 36 33 30 33 31 33 39 42 43 47 46 37 33 31 35 36 33 37 39 41 35 38 37 42 46 46 47 47 50 50 48 47
32 32 33 30 32 37 38 37 33 31 34 35 30 32 31 26 30 30 34 35 40 45 42 39 31 34 36 37 39 37 37 38 37 41 38 44 42 49 49 49 50 50 49 49 49
32 32 33 32 35 36 38 34 34 31 33 31 31 33 34 29 31 28 34 35 35 37 40 39 32 32 31 37 38 34 38 39 39 41 44 43 37 52 54 45 45 50 50 50 51
35 37 39 35 35 33 34 35 36 35 35 38 36 33 31 34 39 39 40 39 38 35 33 32 32 31 30 32 33 29 35 37 39 43 44 38 45 48 50 47 47 48 48 50 51
MSLP
1015.59 1015.94 1016.46 1016.90 1017.22 1017.51 1017.81 1018.05 1018.32 1018.46 1018.60 1018.51 1018.55 1018.55 1018.53 1018.54 1018.40 1018.65 1018.24 1017.62 1017.70 1018.08 1018.07 1018.58 1018.75 1019.06 1019.10 1020.13 1020.23 1020.89 1021.67 1020.59 1019.27 1018.41 1017.73 1017.07 1016.93 1016.67 1016.51 1017.27 1017.86 1018.14 1018.37 1018.21 1019.63
1014.99 1015.37 1015.80 1016.39 1016.76 1017.19 1017.47 1017.74 1018.01 1018.39 1018.38 1018.40 1018.31 1018.29 1018.34 1018.44 1018.40 1018.11 1017.72 1017.52 1017.64 1017.90 1018.33 1018.64 1019.24 1019.35 1020.13 1020.75 1021.77 1021.70 1022.23 1020.77 1019.43 1018.41 1018.35 1017.90 1017.38 1016.71 1016.92 1017.53 1018.25 1018.53 1018.54 1018.54 1019.58
1014.35 1014.75 1015.21 1015.84 1016.31 1016.79 1017.07 1017.31 1017.66 1018.07 1018.21 1018.12 1018.19 1018.21 1018.24 1018.35 1018.45 1017.61 1017.01 1017.29 1017.67 1017.80 1018.09 1018.58 1019.25 1019.74 1020.54 1021.13 1021.44 1021.24 1021.60 1020.73 1019.82 1019.56 1019.46 1018.81 1017.75 1017.35 1016.96 1017.50 1017.57 1018.10 1018.70 1018.82 1019.46
1013.52 1014.09 1014.71 1015.32 1015.98 1016.41 1016.58 1016.82 1017.29 1017.83 1017.87 1018.05 1018.18 1018.24 1018.08 1018.24 1018.12 1017.15 1016.95 1016.93 1017.46 1017.83 1018.27 1018.72 1019.43 1019.99 1020.62 1021.01 1021.12 1021.07 1020.27 1020.20 1020.28 1019.90 1020.11 1019.77 1018.93 1017.95 1017.23 1016.28 1016.10 1017.12 1017.96 1018.31 1019.03
1012.73 1013.38 1014.17 1014.80 1015.41 1015.96 1016.32 1016.59 1016.90 1017.46 1017.81 1017.94 1018.06 1018.15 1018.16 1018.28 1017.57 1017.09 1016.98 1016.95 1017.49 1017.70 1017.98 1018.56 1018.97 1019.53 1020.23 1020.56 1020.85 1020.72 1020.06 1019.86 1019.62 1020.05 1020.21 1019.97 1018.98 1018.25 1017.34 1016.34 1016.33 1017.34 1018.29 1018.50 1018.53
1011.87 1012.75 1013.59 1014.16 1014.88 1015.48 1016.00 1016.34 1016.69 1017.10 1017.53 1017.69 1017.86 1018.02 1018.27 1017.94 1016.58 1016.65 1016.74 1017.09 1017.39 1017.68 1017.92 1018.22 1018.48 1018.96 1019.64 1020.14 1020.32 1019.99 1019.75 1019.55 1019.60 1019.44 1019.85 1019.98 1018.72 1018.48 1016.79 1016.51 1017.03 1017.45 1017.89 1018.21 1018.33
1010.89 1011.83 1012.81 1013.66 1014.26 1014.92 1015.50 1015.98 1016.34 1016.77 1017.09 1017.42 1017.74 1018.16 1018.15 1017.17 1016.75 1016.79 1017.03 1017.12 1017.25 1017.46 1017.84 1018.19 1018.46 1018.88 1019.44 1020.18 1019.85 1019.93 1020.29 1020.11 1019.38 1018.60 1018.98 1019.62 1018.40 1017.75 1016.45 1016.69 1016.93 1017.25 1017.53 1017.70 1017.90
1009.92 1010.88 1011.86 1012.85 1013.64 1014.25 1014.94 1015.60 1016.00 1016.53 1016.90 1017.20 1017.73 1018.24 1017.61 1016.64 1016.59 1016.94 1017.14 1017.46 1017.44 1017.84 1018.11 1018.20 1018.43 1018.98 1019.57 1019.86 1020.32 1020.28 1020.21 1019.62 1018.04 1018.27 1019.18 1018.54 1017.92 1017.21 1016.85 1016.71 1016.94 1016.97 1017.40 1017.63 1017.56
1008.80 1009.82 1011.02 1011.94 1012.89 1013.82 1014.52 1015.15 1015.86 1016.37 1016.64 1017.24 1017.90 1017.92 1017.38 1016.71 1016.82 1016.89 1017.22 1017.88 1018.24 1018.51 1018.47 1018.44 1018.72 1019.01 1019.55 1019.74 1020.00 1019.42 1018.33 1018.24 1018.00 1017.64 1018.24 1017.74 1017.67 1016.45 1016.22 1016.29 1016.23 1016.40 1016.58 1016.82 1017.18
1007.65 1008.74 1009.99 1011.04 1012.13 1013.26 1014.06 1015.05 1015.87 1016.45 1017.04 1017.50 1017.61 1018.28 1017.13 1016.48 1016.48 1016.88 1017.29 1017.83 1018.32 1018.82 1019.12 1019.07 1019.00 1018.96 1018.90 1019.05 1017.47 1017.68 1017.75 1017.43 1017.44 1017.64 1017.59 1016.93 1016.95 1016.29 1015.96 1016.08 1015.76 1015.47 1015.64 1015.95 1016.21
1006.41 1007.45 1008.87 1010.09 1011.21 1012.49 1013.94 1015.28 1016.48 1017.20 1016.76 1016.30 1016.34 1016.36 1015.87 1016.18 1016.15 1016.80 1017.22 1018.02 1018.42 1018.92 1018.93 1019.05 1018.24 1017.23 1016.58 1016.95 1017.23 1016.97 1017.39 1017.24 1016.72 1016.75 1016.96 1015.78 1015.83 1015.55 1015.17 1015.12 1014.89 1014.83 1014.98 1014.79 1014.97
1005.15 1006.16 1007.36 1008.90 1010.25 1011.64 1013.18 1013.41 1013.66 1013.97 1016.02 1016.22 1016.32 1016.28 1016.05 1015.66 1016.42 1016.92 1017.38 1017.99 1018.29 1018.46 1018.95 1019.23 1016.94 1016.57 1017.35 1017.56 1017.56 1016.86 1016.85 1016.69 1016.74 1016.62 1016.60 1015.78 1014.97 1014.08 1013.84 1013.75 1013.61 1013.60 1013.53 1013.59 1013.52
1003.84 1004.50 1006.07 1007.32 1009.19 1011.02 1011.82 1012.46 1013.16 1013.71 1015.15 1015.99 1016.21 1016.26 1016.00 1015.99 1016.23 1016.64 1017.28 1017.44 1017.69 1018.00 1018.23 1018.06 1016.72 1016.83 1017.33 1017.11 1017.25 1016.70 1016.50 1016.61 1016.56 1016.69 1016.53 1016.31 1014.78 1013.43 1012.78 1012.89 1012.44 1012.02 1012.13 1012.17 1011.97
1003.32 1002.30 1004.06 1006.74 1008.88 1009.82 1011.19 1012.02 1012.37 1013.22 1015.21 1015.63 1015.74 1015.24 1015.82 1016.12 1016.29 1016.10 1016.53 1017.03 1017.75 1017.66 1018.20 1017.92 1017.21 1017.13 1017.30 1016.76 1016.78 1016.39 1015.77 1016.04 1016.50 1016.58 1016.46 1015.94 1013.61 1012.01 1011.48 1011.31 1010.70 1010.67 1010.94 1010.85 1010.86
1002.42 1003.11 1003.06 1005.04 1005.59 1007.80 1009.31 1011.12 1012.22 1013.46 1015.90 1014.46 1014.52 1013.77 1014.37 1015.45 1015.66 1016.08 1016.12 1016.95 1016.96 1017.46 1017.98 1017.06 1016.97 1017.21 1017.09 1016.05 1016.67 1015.74 1015.62 1015.84 1015.98 1015.94 1016.07 1015.87 1014.58 1009.95 1010.29 1009.68 1009.32 1009.34 1009.48 1009.46 1009.51
1001.47 1002.20 1001.94 1003.71 1005.25 1007.55 1009.41 1010.78 1012.15 1015.78 1015.34 1014.00 1013.57 1013.81 1014.62 1014.99 1015.52 1015.98 1016.36 1016.63 1017.01 1017.38 1017.42 1017.39 1017.50 1017.21 1015.72 1016.42 1016.32 1016.25 1016.14 1016.24 1016.04 1016.25 1015.16 1014.48 1013.81 1008.70 1008.68 1008.43 1008.03 1007.90 1007.76 1007.64 1008.16
1000.75 1001.94 1001.97 1002.21 1003.30 1006.44 1008.16 1009.73 1012.90 1014.28 1013.80 1013.64 1013.26 1013.36 1013.81 1014.35 1015.30 1015.36 1015.90 1016.29 1016.34 1017.04 1016.96 1017.68 1017.52 1017.28 1016.77 1016.52 1016.75 1016.31 1015.55 1016.35 1016.30 1015.77 1013.80 1013.41 1013.40 1007.78 1006.99 1007.02 1006.70 1006.50 1006.12 1006.22 1006.31
1000.22 1001.48 1001.68 1001.70 1002.92 1005.02 1007.52 1009.47 1011.45 1011.75 1012.31 1011.88 1012.20 1013.12 1013.55 1014.07 1014.93 1014.98 1015.45 1015.51 1015.79 1015.61 1015.90 1016.63 1017.19 1016.72 1016.00 1015.10 1015.25 1015.48 1015.75 1015.40 1015.54 1015.19 1014.69 1013.92 1011.12 1006.54 1005.85 1005.96 1006.14 1005.70 1005.25 1005.36 1005.50
1000.20 1000.72 1002.11 1001.62 1002.01 1003.65 1006.15 1008.10 1007.44 1008.89 1010.02 1010.76 1012.29 1012.69 1013.12 1013.47 1013.57 1014.85 1014.84 1014.53 1014.21 1014.65 1014.74 1015.41 1015.89 1015.79 1015.73 1015.24 1015.35 1015.71 1015.28 1015.38 1015.20 1015.53 1015.22 1012.90 1009.36 1007.39 1005.72 1005.06 1005.15 1005.08 1005.24 1004.87 1004.70
999.58 1000.74 1001.19 1001.91 1001.82 1003.32 1005.16 1005.01 1006.70 1007.22 1008.17 1009.32 1010.42 1011.25 1011.65 1012.36 1012.71 1013.41 1013.90 1012.51 1013.15 1013.44 1014.14 1014.40 1015.22 1015.52 1015.71 1015.84 1015.80 1015.61 1014.83 1015.21 1014.81 1015.14 1014.48 1011.41 1009.35 1006.49 1005.42 1004.84 1004.73 1004.77 1004.50 1004.37 1004.34
999.51 1000.56 1000.39 1001.40 1002.13 1003.76 1002.78 1004.44 1005.78 1006.24 1006.63 1008.16 1009.55 1010.43 1010.96 1011.30 1011.88 1012.21 1012.04 1011.90 1012.06 1012.61 1013.63 1013.98 1014.34 1015.84 1015.92 1015.47 1014.80 1015.28 1014.31 1014.33 1014.32 1014.34 1012.53 1010.77 1007.48 1005.81 1004.54 1003.82 1004.03 1003.49 1003.45 1003.81 1004.14
999.39 1000.32 1000.26 1000.24 1001.30 1002.22 1003.55 1003.70 1004.61 1006.13 1006.64 1007.64 1008.76 1009.58 1010.13 1010.92 1011.40 1011.85 1011.33 1011.18 1011.05 1011.89 1012.70 1013.08 1013.77 1014.73 1014.89 1014.77 1014.67 1013.77 1013.73 1013.31 1012.62 1012.67 1011.96 1010.95 1006.29 1004.96 1004.29 1004.29 1004.50 1003.89 1004.09 1003.86 1004.74
999.53 1000.20 1000.13 999.85 998.90 1001.46 1003.69 1003.63 1003.83 1005.62 1006.52 1007.71 1008.75 1008.93 1009.64 1010.48 1011.66 1011.29 1011.19 1011.11 1011.27 1011.51 1011.57 1012.28 1012.71 1013.41 1014.29 1015.01 1014.47 1013.56 1013.21 1012.54 1012.17 1011.74 1010.65 1009.99 1005.43 1004.72 1003.84 1003.87 1004.17 1004.00 1004.08 1004.11 1004.54
999.22 999.57 999.52 999.48 999.60 998.96 1002.33 1003.32 1004.52 1005.61 1006.69 1007.44 1008.44 1008.89 1010.07 1010.92 1011.04 1011.45 1011.79 1011.47 1011.11 1011.10 1011.24 1011.70 1011.42 1011.11 1010.14 1009.98 1011.11 1011.98 1011.24 1011.33 1010.83 1010.36 1008.56 1007.27 1005.16 1004.52 1003.97 1003.53 1003.69 1004.07 1004.34 1004.48 1004.76
998.02 997.96 998.30 998.72 999.55 999.86 1001.83 1002.44 1003.55 1005.16 1006.03 1006.97 1008.43 1008.41 1008.94 1010.57 1011.07 1011.43 1011.59 1011.48 1011.14 1010.83 1011.33 1011.81 1011.61 1011.30 1010.43 1009.96 1009.65 1009.26 1009.46 1009.91 1010.29 1008.08 1007.99 1003.84 1004.90 1004.33 1003.58 1003.47 1003.44 1003.83 1004.85 1004.93 1005.17
997.81 997.56 998.46 999.34 999.61 1000.48 1001.76 1002.50 1003.24 1004.45 1005.47 1006.18 1006.81 1007.99 1008.29 1009.08 1009.83 1010.93 1010.91 1011.15 1011.00 1011.34 1011.59 1011.92 1011.28 1011.52 1010.45 1009.72 1009.50 1008.98 1008.69 1008.13 1008.17 1007.61 1006.83 1004.97 1003.88 1003.13 1003.20 1003.42 1003.73 1003.98 1003.84 1004.40 1004.51
998.22 997.59 996.77 999.00 999.93 1000.46 1000.82 1001.99 1003.04 1003.71 1005.49 1005.90 1007.09 1007.87 1008.59 1008.82 1009.35 1009.94 1010.32 1010.71 1010.93 1011.21 1011.48 1011.94 1011.72 1011.53 1009.71 1009.13 1008.97 1008.42 1006.41 1006.39 1006.14 1006.17 1004.91 1004.72 1001.91 1003.37 1003.26 1003.15 1003.12 1002.97 1003.44 1003.70 1003.89
Wind_Speed
18 17 16 15 12 14 13 12 9 6 5 4 0 2 2 3 3 2 5 8 7 9 7 3 7 3 3 4 6 4 4 3 3 4 5 6 4 1 2 6 2 3 7 7 13
19 18 17 16 13 11 12 13 11 8 6 5 3 1 0 1 2 9 5 8 5 12 6 6 4 2 4 3 2 6 2 4 6 3 6 8 6 6 4 5 2 3 4 17 17
21 18 17 15 14 13 11 14 13 10 7 6 4 1 3 3 2 6 14 15 11 10 6 3 6 4 4 3 6 8 7 4 7 14 14 10 8 3 6 4 7 11 11 19 15
22 20 19 17 15 13 12 12 13 11 9 6 5 3 5 2 5 0 8 17 11 9 6 7 5 6 5 5 4 4 10 7 6 7 8 12 13 9 7 9 10 10 15 21 19
24 22 20 18 16 14 13 11 12 13 10 8 6 5 4 4 7 3 5 8 5 12 9 7 6 6 6 6 6 5 6 8 9 4 8 11 13 13 9 8 6 14 15 19 19
25 23 21 19 18 16 14 12 11 13 10 9 8 5 2 6 4 4 4 5 9 10 7 7 7 5 4 6 8 7 11 12 9 8 3 10 15 6 9 5 9 16 18 16 19
27 25 22 20 20 18 16 13 13 13 10 9 11 3 5 11 3 4 2 3 7 9 5 5 4 6 7 3 3 5 6 7 12 9 8 2 16 9 12 5 11 15 16 17 18
30 27 25 22 21 19 16 13 12 12 10 11 11 3 6 4 5 1 2 3 4 3 2 3 3 4 4 5 2 7 3 9 6 10 3 14 19 18 11 7 11 13 11 14 17
31 29 27 25 22 20 17 14 14 11 11 12 5 5 6 4 4 4 6 4 5 3 4 1 2 5 5 6 3 7 12 7 2 10 8 7 8 18 9 10 14 12 14 15 14
33 31 30 27 25 22 19 17 15 10 7 4 2 3 4 6 5 6 3 7 4 4 1 6 7 6 7 11 17 12 12 6 11 10 9 8 13 14 18 12 15 14 15 15 15
35 34 32 31 29 26 20 9 9 3 7 7 9 4 2 5 4 5 6 6 4 2 9 3 7 18 20 22 12 13 11 18 9 9 7 16 17 19 19 16 15 13 13 16 18
37 37 37 34 32 29 16 10 18 7 9 9 3 4 1 4 6 6 9 9 8 12 7 4 24 19 8 8 18 20 14 13 3 10 10 11 18 22 20 21 12 15 17 19 20
30 42 39 38 35 24 21 15 12 6 7 7 6 7 4 3 5 9 11 8 5 9 15 20 7 12 14 16 14 16 27 11 5 1 8 4 10 19 13 20 23 17 17 20 23
8 32 41 38 28 21 21 12 10 5 7 5 9 9 5 6 4 7 13 9 7 10 18 15 18 17 11 17 15 19 12 13 12 8 5 7 12 18 14 21 23 20 18 19 21
20 3 43 41 21 25 25 11 9 10 3 9 8 5 13 11 7 8 6 5 9 8 7 7 7 13 22 16 15 14 14 15 10 7 2 6 9 11 14 18 21 20 19 20 21
14 2 45 31 18 22 20 15 7 10 10 5 8 11 14 9 5 7 10 4 1 5 5 5 2 5 17 7 2 7 4 4 3 8 12 16 13 19 17 14 17 18 22 24 21
19 18 24 20 22 28 19 14 8 8 4 11 10 18 16 14 8 11 16 17 13 9 14 2 4 5 5 13 1 8 7 4 5 5 10 11 13 25 5 11 20 23 25 24 24
22 17 11 21 24 31 14 12 8 8 9 2 12 21 17 17 16 14 14 15 22 11 5 11 8 10 6 7 10 19 12 4 5 5 3 3 17 11 13 21 22 14 16 20 22
21 10 7 15 29 24 21 17 17 14 12 15 17 22 9 12 10 12 8 15 16 20 12 10 11 3 4 2 6 6 14 6 3 3 2 7 9 8 10 10 12 19 14 16 19
4 8 4 21 27 22 19 16 8 9 16 18 8 10 11 20 8 18 17 13 18 17 16 6 3 5 5 2 1 5 10 5 4 7 12 8 8 12 6 12 15 13 14 11 10
4 6 6 26 22 18 25 12 6 10 18 10 7 8 8 15 13 12 15 3 20 18 19 5 3 3 4 8 10 6 4 5 2 4 6 2 9 7 15 12 14 19 13 10 9
2 5 11 18 17 12 18 11 8 16 4 6 7 6 13 16 14 11 13 7 12 17 21 18 4 6 9 2 5 13 7 6 5 6 4 3 11 6 5 5 8 10 9 6 6
6 4 15 15 16 17 14 4 6 12 8 6 6 3 3 10 10 14 7 6 7 17 14 16 7 4 6 1 2 7 8 13 5 4 16 6 11 3 3 4 6 9 8 7 6
4 6 8 10 9 30 24 11 8 5 5 6 7 6 7 5 1 10 7 5 5 8 17 13 9 13 17 12 8 12 20 22 22 12 21 22 14 8 5 5 3 5 6 5 6
2 4 3 13 13 21 21 14 19 10 5 6 3 8 10 6 6 6 5 3 4 7 6 8 4 7 16 6 15 18 23 24 23 29 17 35 21 19 9 9 7 7 3 5 7
2 3 3 8 24 22 21 18 23 7 8 6 12 12 6 8 8 9 8 6 5 4 5 9 7 8 14 24 15 14 25 26 27 30 27 16 14 11 11 4 6 9 9 9 8
2 4 11 16 22 18 20 19 22 12 6 9 17 8 7 8 6 6 4 4 6 6 5 4 1 2 8 8 12 7 26 27 25 27 32 19 22 5 7 10 11 11 9 9 8
Wind_Direction
215 216 221 225 222 209 209 217 196 189 188 163 322 307 333 340 95 154 217 217 183 147 80 105 42 44 33 82 53 37 320 265 243 178 256 316 332 283 108 124 39 1 155 179 147
215 213 214 218 217 210 210 202 185 192 194 195 208 309 105 18 258 243 235 237 168 152 118 151 147 102 62 79 59 101 279 246 301 307 348 317 263 204 135 137 26 17 1 140 148
214 211 208 214 215 211 212 198 180 180 191 199 206 258 133 172 329 234 221 223 181 172 138 120 111 107 114 181 181 147 176 314 316 352 359 320 301 227 152 247 197 187 166 156 163
209 207 205 203 205 208 210 194 177 177 181 194 207 174 158 128 200 23 300 216 193 161 109 118 118 139 139 176 181 184 198 194 279 340 345 320 317 292 200 215 194 171 174 159 173
207 203 202 198 196 198 199 193 184 175 179 182 190 177 143 189 239 191 14 199 182 179 154 155 144 138 176 169 134 213 198 188 218 330 310 314 294 269 264 247 123 143 165 180 181
204 201 198 191 190 190 190 193 199 183 180 189 183 190 157 215 232 324 140 174 182 197 173 150 173 182 159 170 186 196 222 206 199 190 211 279 295 284 269 184 145 158 180 185 188
201 198 195 190 184 184 179 185 195 176 172 198 174 140 204 224 116 34 188 206 201 194 185 184 163 168 138 129 190 134 183 233 232 189 191 124 275 224 247 210 176 188 190 187 196
197 195 192 187 183 178 173 178 181 166 169 184 157 117 236 221 260 130 17 49 63 34 355 107 147 114 201 118 115 166 165 217 203 181 180 107 267 280 294 199 210 200 195 201 200
195 191 191 185 178 174 165 167 154 158 169 159 154 180 235 84 143 203 140 149 90 37 359 194 65 172 119 191 192 218 225 212 233 184 152 146 248 257 275 211 219 204 199 204 206
192 189 188 182 174 168 157 152 143 120 133 110 45 154 198 206 171 159 137 135 122 124 105 223 206 208 193 197 216 207 219 203 213 194 208 171 241 260 270 265 239 216 206 207 205
194 186 185 180 170 165 153 136 151 178 199 187 185 224 142 137 99 144 134 111 108 155 207 201 265 213 204 210 227 228 210 225 200 179 199 216 231 239 249 253 243 233 227 209 211
197 188 181 177 169 164 159 174 182 156 182 243 300 241 169 150 135 154 136 173 182 209 207 186 234 223 231 221 235 256 220 217 230 187 205 228 232 239 243 241 231 231 223 217 219
209 187 180 172 166 160 176 175 165 143 127 209 192 201 204 133 166 179 177 173 204 200 205 225 187 211 240 236 239 248 235 214 190 102 241 335 263 258 245 238 247 242 226 221 217
167 200 174 168 161 166 181 183 151 129 75 238 183 229 165 135 265 169 188 187 207 214 205 235 233 247 223 229 222 251 232 236 192 171 224 166 274 251 238 233 236 229 224 218 218
187 254 174 170 154 177 163 147 117 60 123 214 170 163 160 167 140 215 160 222 193 171 167 204 186 207 227 236 215 243 222 248 253 253 292 212 261 275 209 229 237 231 226 220 219
188 27 174 174 157 157 153 134 81 68 240 184 143 166 156 179 171 125 173 93 3 175 247 253 17 247 220 188 172 175 101 31 120 228 234 222 224 260 235 227 245 235 225 221 216
195 187 194 163 165 154 153 147 115 152 244 172 174 173 167 171 170 169 180 191 191 188 224 101 221 301 267 191 107 218 151 206 233 205 241 183 216 242 246 224 234 234 232 222 213
204 196 257 168 151 152 160 145 123 176 193 157 155 162 180 152 206 181 174 199 211 218 179 204 222 182 206 191 199 209 202 186 221 193 201 202 231 253 213 234 245 241 241 235 220
182 186 194 175 155 153 160 174 187 173 160 158 138 164 168 184 156 187 210 209 203 209 210 188 225 195 268 114 153 164 207 227 79 55 340 226 281 273 246 236 241 252 242 233 217
135 146 245 178 158 156 164 177 146 167 132 146 144 173 165 181 151 175 176 210 218 193 217 218 214 231 142 95 77 227 147 147 169 202 231 247 264 241 298 239 224 231 225 229 215
142 126 176 171 151 170 172 180 133 162 138 137 147 126 169 171 180 187 185 223 198 188 205 238 176 130 121 204 170 168 214 174 144 217 216 248 254 224 231 228 227 225 212 212 203
101 133 180 175 160 174 179 149 118 153 113 110 105 111 167 161 173 192 196 192 195 170 199 203 202 187 196 51 273 217 205 192 200 201 257 284 264 212 249 279 267 262 231 195 225
134 122 179 176 169 164 172 121 103 151 145 137 119 158 101 159 179 202 192 209 249 181 190 187 197 171 153 285 219 219 201 211 260 42 215 198 262 260 240 330 305 249 218 206 200
166 144 162 174 193 155 165 157 122 114 83 101 113 97 111 142 263 169 166 239 226 216 196 177 204 220 222 228 143 209 205 209 205 216 228 227 238 283 247 243 268 281 240 201 189
227 163 123 159 173 152 166 153 144 148 119 156 51 158 144 133 144 159 168 220 227 200 167 174 265 241 259 281 192 204 202 200 214 231 218 239 233 236 245 227 227 201 254 206 211
237 146 201 126 148 148 174 178 166 113 155 172 138 157 152 132 161 178 162 185 190 77 181 179 238 231 256 234 218 203 207 197 206 232 240 248 272 237 230 208 183 217 188 215 222
179 259 161 145 161 154 182 174 168 126 27 122 138 130 167 170 155 133 147 150 152 143 149 160 144 267 252 181 181 224 206 199 214 225 226 230 230 215 213 207 208 194 198 207 221